Location: Utrecht
(52.0907°N, 5.1214°E)
Time: 13:42:37
(UTC+02:00)

SPROUT - Pass Details

Date: 01 July 2022
Orbit: 588 x 598 km, 97.9° (Epoch: 18 August)

Event Time Altitude Azimuth Distance (km) Brightness Sun altitude
Exits shadow 00:41:57 - 107° (ESE) 2,452 ? -13.6°
Reaches altitude 10° 00:43:50 10° 90° (E) 1,921 ? -13.7°
Maximum altitude 00:46:09 15° 56° (NE) 1,633 ? -13.8°
Drops below altitude 10° 00:48:29 10° 22° (NNE) 1,930 ? -13.8°
Sets 00:51:28 0° 359° (N) 2,839 ? -13.9°
